Погода в Пыздрах

Польша     52°10′19″N   17°41′11″E
темп.,
°C
ветер,
м/с
пор.,
м/с
влажн.,
%
обл.,
%
осадки,
мм/ч
давл.,
гПа
погр.,
м
9 декабря, чт
чт901:00−4в61189100 0.0 1009361
04:00−4в61190100 0.0 1009346
07:00−4в5118988 0.0 1009332
10:00−3вюв598594 0.0 1010295
13:00−1вюв4782100 0.0 1009287
16:00−1в4791100 0.0 1008211
19:00−1всв3592100 0.8 1008206
22:00−1в2598100 0.3 1007226
10 декабря, пт
пт1001:00−1вюв1399100 1.3 1006149
04:00−1ююв1199100 0.8 100323
07:00−1юз3598100 1.8 1003219
10:00−2ю249764 0.0 1003167
13:000ююз4694100 0.0 1003380
16:000ю239280 0.0 100392
19:00−3юв249714 0.0 100566
22:00−4вюв359711 0.0 100680
11 декабря, сб
сб1101:00−4вюв239714 0.0 100752
04:00−5вюв229713 0.0 100833
07:00−5вюв229711 0.0 101029
10:00−3в2393100 0.0 101288
13:00−2в2291100 0.0 101381
16:00−4ю119699 0.0 101510
19:00−6ссз119811 0.0 101712
22:00−6зсз229754 0.0 101930
12 декабря, вс
вс1201:00−6з239787 0.0 102158
04:00−3з369675 0.0 1023197
07:00−5зюз249968 0.0 102577
10:00−3з3495100 0.0 1026255
13:00−1з2493100 0.0 1026246
16:000з128890 0.0 102715
19:00−4юз229713 0.0 102828
22:00−5ю119818 0.0 102716
13 декабря, пн
пн1301:00−5ю229817 0.0 102730
04:00−5ю229717 0.0 102826
07:00−6ююз229761 0.0 102838
10:00−2ю249298 0.0 1028118
13:00−1ю2390100 0.0 1027129
16:00−1ююв2292100 0.0 102745
19:00−1ююв2294100 0.0 102757
22:00−1ююв229644 0.0 102639